Location: Rounton
(54.4000°N, 1.3500°W)
Time: 18:00:18
(UTC+01:00)

S-56A Canister/Altair - Pass Details

Date: 14 September 2024
Orbit: 636 x 2487 km, 38.9° (Epoch: 06 October)

Event Time Altitude Azimuth Distance (km) Brightness Sun altitude
Rises 19:01:37 0° 192° (SSW) 3,311 10.9 2.3°
Reaches altitude 10° 19:06:13 10° 156° (SSE) 2,722 10.1 1.6°
Maximum altitude 19:07:47 11° 142° (SE) 2,783 10.0 1.4°
Drops below altitude 10° 19:09:27 10° 128° (SE) 2,990 10.1 1.2°
Sets 19:15:39 0° 96° (E) 4,499 10.7 0.3°
Enters shadow 19:15:42 - 96° (E) 4,515 10.7 0.3°
